User: anonymous   Login
Location: DARK SKY Beskydy - Park tmavé oblohy, www.darkskybeskydy.cz
(49.4926°N, 18.5016°E)
Time: 19:03:23
(UTC+02:00)
Language:

Vanguard 2 Rocket - Orbit

View from above orbital plane
View from above orbital plane
View from above satellite
View from above satellite

Ground track
Ground track

The orbit data is extracted from the following two-line orbital elements,

1 00012U 59001B   24199.97531646  .00004201  00000-0  24909-2 0  9997
2 00012  32.8956 166.5771 1653776   6.5512 355.4118 11.46662208450962
Epoch (UTC): 17 July 2024 23:24:27
Eccentricity: 0.1653776
inclination: 32.8956°
perigee height: 555 km
apogee height: 3302 km
right ascension of ascending node: 166.5771°
argument of perigee: 6.5512°
revolutions per day: 11.46662208
mean anomaly at epoch: 355.4118°
orbit number at epoch: 45096

The dashed part of the orbit path shows where the satellite is in the earth's shadow,  

DLR